Warning: Javascript must be enabled to use all the features on this page!


Page Loading - Please Wait...

Click to hideNews Bulletins

Streamflow Measurements for the Nation


USGS 11455315 CACHE SLOUGH A S LIBERTY ISLAND NR RIO VISTA CA


Solano County, California
Hydrologic Unit Code 18020163
Latitude  38°14'32", Longitude 121°41'10" NAD83
Output formats
HTML table with channel data
HTML table without channel data
Tab-separated data with channel data
Tab-separated data without channel data
Graph of data
Reselect output format
Meas.
Number
  Date       Time Time
Datum
Measurement
Used?
  Who Measuring
Agency
Stream
flow
(ft3/s)
Gage
Height
(ft)
GH
Change
(ft)
Meas.
Duration
(hr)
Meas.
Rated
  Control Flow
Adjust.
Code
 
3762019-10-07 11:23:48PSTYesJH, HRUSGS-862022.10 Poor NONE
3752019-10-07 11:21:14PSTYesJH, HRUSGS-809022.07 Poor NONE
3742019-10-07 11:18:44PSTYesJH, HRUSGS-884022.05 Poor NONE
3732019-10-07 11:16:15PSTYesJH, HRUSGS-852022.02 Poor NONE
3722019-10-07 11:13:40PSTYesJH, HRUSGS-900022.00 Poor NONE
3712019-10-07 10:58:09PSTYesJH, HRUSGS-843021.98 Poor NONE
3702019-08-28 11:19:24PSTYesJH/TDUSGS-809020.79 Poor NONE
3692019-08-28 11:16:18PSTYesJH/TDUSGS-790020.76 Poor NONE
3682019-08-28 11:13:12PSTYesJH/TDUSGS-752020.72 Poor NONE
3672019-08-28 11:10:14PSTYesJH/TDUSGS-726020.69 Poor NONE
3662019-08-28 11:07:03PSTYesJH/TDUSGS-671020.65 Poor NONE
3652019-08-28 11:03:43PSTYesJH/TDUSGS-607020.61 Poor NONE
3642019-07-17 12:38:40PSTYesJH, HRUSGS10702.70 Fair NONE
3632019-07-17 12:34:23PSTYesJH, HRUSGS19102.69 Fair NONE
3622019-07-17 12:29:59PSTYesJH, HRUSGS18702.69 Fair NONE
3612019-07-17 12:25:44PSTYesJH, HRUSGS25802.69 Fair NONE
3602019-07-17 12:21:16PSTYesJH, HRUSGS28502.69 Fair NONE
3592019-07-17 12:16:35PSTYesJH, HRUSGS37802.71 Fair NONE
3582019-05-08 11:14:32PSTYesJH, HRUSGS963021.62 Good NONE
3572019-05-08 11:10PSTYesJH, HRUSGS1030021.66 Good NONE
3562019-05-08 11:05:03PSTYesJH, HRUSGS981021.72 Good NONE
3552019-05-08 11:00:35PSTYesJH, HRUSGS1070021.76 Good NONE
3542019-05-08 10:54:31PSTYesJH, HRUSGS946021.83 Good NONE
3532019-05-08 10:50:22PSTYesJH, HRUSGS1090021.88 Good NONE
3522019-04-01 10:41:36PSTYesJH, ZHUSGS-533022.26 Good NONE
3512019-04-01 10:37:44PSTYesJH, ZHUSGS-438022.22 Good NONE
3502019-04-01 10:34:14PSTYesJH, ZHUSGS-447022.19 Good NONE
3492019-04-01 10:30:16PSTYesJH, ZHUSGS-361022.14 Good NONE
3482019-04-01 10:26:14PSTYesJH, ZHUSGS-219022.07 Good NONE
3472019-04-01 10:22:28PSTYesJH, ZHUSGS-224022.09 Good NONE
3462019-04-01 10:18:38PSTYesJH, ZHUSGS-146022.06 Good NONE
3452019-04-01 10:14:49PSTYesJH, ZHUSGS-109022.03 Fair NONE
3442019-02-19 10:38:08PSTYesJH/NSUSGS1540022.58 Fair NONE
3432019-02-19 10:32:31PSTYesJH/NSUSGS1690022.59 Fair NONE
3422019-02-19 10:27PSTYesJH/NSUSGS1570022.61 Fair NONE
3412019-02-19 10:21:14PSTYesJH/NSUSGS1700022.62 Fair NONE
3402019-02-19 10:14:43PSTYesJH/NSUSGS1720022.66 Fair NONE
3392019-02-19 10:07:18PSTYesJH/NSUSGS1760022.70 Fair NONE
3382018-11-13 10:27:21PSTYesJH/RJUSGS60322.38 Unspecified NONE
3372018-11-13 10:22:06PSTYesJH/RJUSGS72.122.39 Unspecified NONE
3362018-11-13 10:17:17PSTYesJH/RJUSGS-78322.40 Unspecified NONE
3352018-11-13 10:11:51PSTYesJH/RJUSGS-115022.40 Unspecified NONE
3342018-11-13 10:07:12PSTYesJH/RJUSGS-136022.40 Unspecified NONE
3332018-11-13 10:01:11PSTYesJH/RJUSGS-227022.40 Unspecified NONE
3322018-09-13 12:51:02PSTYesJH/RJ/HRUSGS469020.36 Unspecified NONE
3312018-09-13 12:45:26PSTYesJH/RJ/HRUSGS498020.38 Unspecified NONE
3302018-09-13 12:40:31PSTYesJH/RJ/HRUSGS501020.42 Unspecified NONE
3292018-09-13 12:36:30PSTYesJH/RJ/HRUSGS512020.44 Unspecified NONE
3282018-09-13 11:59:10PSTYesJH/RJ/HRUSGS630020.73 Unspecified NONE
3272018-09-13 11:48:03PSTYesJH/RJ/HRUSGS678020.83 Unspecified NONE
3262018-04-03 10:37:36PSTYesRPJ,CCUSGS1130021.43 Unspecified NONE
3252018-04-03 10:30:16PSTYesRPJ,CCUSGS1130021.52 Unspecified NONE
3242018-04-03 10:23:57PSTYesRPJ,CCUSGS1140021.58 Unspecified NONE
3232018-04-03 10:17:30PSTYesRPJ,CCUSGS1120021.66 Unspecified NONE
3222018-04-03 10:11:43PSTYesRPJ,CCUSGS1120021.73 Unspecified NONE
3212018-04-03 10:05:40PSTYesRPJ,CCUSGS1150021.79 Unspecified NONE
3202018-01-25 11:58:16PSTYesRPJ,NVBUSGS771023.33 Unspecified NONE
3192018-01-25 11:48:20PSTYesRPJ,NVBUSGS6090 Unspecified NONE
3182018-01-25 11:38:49PSTYesRPJ,NVBUSGS463023.45 Unspecified NONE
3172018-01-25 11:29:26PSTYesRPJ,NVBUSGS252023.50 Unspecified NONE
3162018-01-25 11:19:08PSTYesRPJ,NVBUSGS-69623.54 Unspecified NONE
3152018-01-25 11:09:50PSTYesRPJ,NVBUSGS-249023.56 Unspecified NONE
3142017-11-27 12:05:15PSTYesCV,RPJUSGS-433023.15 Unspecified NONE
3132017-11-27 11:56:07PSTYesCV,RPJUSGS-532023.14 Unspecified NONE
3122017-11-27 11:47:42PSTYesCV,RPJUSGS-623023.11 Unspecified NONE
3112017-11-27 11:37:35PSTYesCV,RPJUSGS-674023.08 Unspecified NONE
3102017-11-27 11:27:26PSTYesCV,RPJUSGS-814023.03 Unspecified NONE
3092017-11-27 11:20:54PSTYesCV,RPJUSGS-872023.00 Unspecified NONE
3082017-09-18 14:02:58PSTYesTV,RJUSGS-1250022.77 Unspecified NONE
3072017-09-18 13:56:55PSTYesTV,RJUSGS-1270022.72 Unspecified NONE
3062017-09-18 13:51:04PSTYesTV,RJUSGS-1280022.66 Unspecified NONE
3052017-09-18 13:45:03PSTYesTV,RJUSGS-1280022.60 Unspecified NONE
3042017-09-18 13:39:36PSTYesTV,RJUSGS-1280022.54 Unspecified NONE
3032017-09-18 13:33:52PSTYesTV,RJUSGS-1290022.49 Unspecified NONE
3022017-05-17 11:18:48PSTYesRPJ, CVUSGS739021.92 Unspecified NONE
3012017-05-17 11:12:40PSTYesRPJ, CVUSGS765021.97 Unspecified NONE
3002017-05-17 11:01:14PSTYesRPJ, CVUSGS725022.12 Unspecified NONE
2992017-05-17 10:54:44PSTYesRPJ, CVUSGS745022.14 Unspecified NONE
2982017-05-17 10:48:12PSTYesRPJ, CVUSGS678022.17 Unspecified NONE
2972017-05-17 10:41:24PSTYesRPJ, CVUSGS721022.23 Unspecified NONE
2962017-05-17 10:34:22PSTYesRPJ, CVUSGS707022.28 Unspecified NONE
2952017-05-17 10:26:44PSTYesRPJ, CVUSGS710022.34 Unspecified NONE
2942017-05-17 10:19:11PSTYesRPJ, CVUSGS666022.39 Unspecified NONE
2932017-05-17 10:12:40PSTYesRPJ, CVUSGS674022.44 Unspecified NONE
2922017-01-24 12:23:19PSTYesRPJ/BTGUSGS1290025.12 Unspecified NONE
2912017-01-24 12:17:40PSTYesRPJ/BTGUSGS1300025.09 Unspecified NONE
2902017-01-24 12:11:36PSTYesRPJ/BTGUSGS1290025.06 Unspecified NONE
2892017-01-24 12:04:04PSTYesRPJ/BTGUSGS1280025.01 Unspecified NONE
2882017-01-24 11:55:59PSTYesRPJ/BTGUSGS1250024.97 Unspecified NONE
2872017-01-24 11:48:42PSTYesRPJ/BTGUSGS1350024.93 Unspecified NONE
2862017-01-24 11:41:43PSTYesRPJ/BTGUSGS1350024.88 Unspecified NONE
2852017-01-24 11:34:03PSTYesRPJ/BTGUSGS1280024.85 Unspecified NONE
2842017-01-24 11:26:19PSTYesRPJ/BTGUSGS1300024.80 Unspecified NONE
2832017-01-24 11:18:34PSTYesRPJ/BTGUSGS1390024.74 Unspecified NONE
2822017-01-24 11:10:41PSTYesRPJ/BTGUSGS1380024.69 Unspecified NONE
2812017-01-24 11:03:09PSTYesRPJ/BTGUSGS1390024.66 Unspecified NONE
2802017-01-24 10:55:20PSTYesRPJ/BTGUSGS1430024.61 Unspecified NONE
2792017-01-24 10:46:10PSTYesRPJ/BTGUSGS1450024.55 Unspecified NONE
2782017-01-13 12:19:30PSTYestv,rjUSGS3410027.23 Unspecified NONE
2772017-01-13 12:12:40PSTYestv,rjUSGS3690027.26 Unspecified NONE
2762017-01-13 12:01:11PSTYestv,rjUSGS3410027.28 Unspecified NONE
2752017-01-13 11:54:42PSTYestv,rjUSGS3530027.25 Unspecified NONE
2742017-01-13 11:30:05PSTYestv,rjUSGS3690027.28 Unspecified NONE
2732017-01-13 11:21:59PSTYestv,rjUSGS3630027.32 Unspecified NONE
2722016-11-03 12:23:05PSTYesRPJ,NVBUSGS180020.97 Poor NONE
2712016-11-03 12:15:58PSTYesRPJ,NVBUSGS225020.97 Poor NONE
2702016-11-03 12:08:21PSTYesRPJ,NVBUSGS293020.98 Poor NONE
2692016-11-03 12:00:04PSTYesRPJ,NVBUSGS350021.00 Poor NONE
2682016-11-03 11:51:29PSTYesRPJ,NVBUSGS408021.03 Poor NONE
2672016-11-03 11:43:46PSTYesRPJ,NVBUSGS438021.06 Poor NONE
2662016-11-03 11:34:41PSTYesRPJ,NVBUSGS499021.10 Poor NONE
2652016-11-03 11:25:07PSTYesRPJ,NVBUSGS557021.15 Poor NONE
2642016-11-03 11:17:02PSTYesRPJ,NVBUSGS593021.19 Poor NONE
2632016-11-03 11:09:28PSTYesRPJ,NVBUSGS632021.25 Poor NONE
2622016-11-03 11:01:22PSTYesRPJ,NVBUSGS636021.30 Poor NONE
2612016-11-03 10:53:36PSTYesRPJ,NVBUSGS661021.36 Poor NONE
2602016-11-03 10:45:44PSTYesRPJ,NVBUSGS695021.42 Poor NONE
2592016-11-03 10:36:53PSTYesRPJ,NVBUSGS726021.48 Poor NONE
2582016-11-03 10:28:43PSTYesRPJ,NVBUSGS717021.55 Poor NONE
2572016-11-03 10:21:37PSTYesRPJ,NVBUSGS720021.61 Poor NONE
2562016-11-03 10:14:39PSTYesRPJ,NVBUSGS716021.68 Poor NONE
2552016-11-03 10:07:20PSTYesRPJ,NVBUSGS756021.74 Poor NONE
2542016-11-03 09:59:58PSTYesRPJ,NVBUSGS795021.81 Poor NONE
2532016-11-03 09:53:08PSTYesRPJ,NVBUSGS823021.87 Poor NONE
2522016-11-03 09:46:48PSTYesRPJ,NVBUSGS812021.92 Poor NONE
2512016-11-03 09:40:48PSTYesRPJ,NVBUSGS787021.98 Poor NONE
2502016-11-03 09:35:04PSTYesRPJ,NVBUSGS790022.04 Poor NONE
2492016-11-03 09:30:08PSTYesRPJ,NVBUSGS645022.08 Poor NONE
2482016-10-25 14:33:58PSTYesRPJ,NVBUSGS219023.27 Poor NONE
2472016-10-25 14:28:54PSTYesRPJ,NVBUSGS122023.27 Poor NONE
2462016-10-25 14:23:46PSTYesRPJ,NVBUSGS-31323.29 Poor NONE
2452016-10-25 14:18:39PSTYesRPJ,NVBUSGS-110023.30 Poor NONE
2442016-10-25 14:12:46PSTYesRPJ,NVBUSGS-212023.30 Poor NONE
2432016-10-25 14:06:50PSTYesRPJ,NVBUSGS-336023.30 Poor NONE
2422016-10-25 14:01:08PSTYesRPJ,NVBUSGS-418023.30 Poor NONE
2412016-10-25 13:54PSTYesRPJ,NVBUSGS-490023.30 Poor NONE
2402016-10-25 13:36:36PSTYesRPJ,NVBUSGS-704023.25 Poor NONE
2392016-10-25 13:28:59PSTYesRPJ,NVBUSGS-753023.22 Poor NONE
2382016-10-25 13:21:54PSTYesRPJ,NVBUSGS-849023.18 Poor NONE
2372016-10-25 13:16:33PSTYesRPJ,NVBUSGS-845023.14 Poor NONE
2362016-10-25 13:10:26PSTYesRPJ,NVBUSGS-854023.14 Poor NONE
2352016-10-25 13:03:18PSTYesRPJ,NVBUSGS-905023.06 Poor NONE
2342016-10-25 12:56:17PSTYesRPJ,NVBUSGS-986023.06 Poor NONE
2332016-10-25 12:49:20PSTYesRPJ,NVBUSGS-1020022.96 Poor NONE
2322016-10-25 12:18:10PSTYesRPJ,NVBUSGS-1060022.73 Poor NONE
2312016-10-25 12:09:09PSTYesRPJ,NVBUSGS-1140022.67 Poor NONE
2302016-10-25 12:01:13PSTYesRPJ,NVBUSGS-1140022.60 Poor NONE
2292016-10-25 11:53:24PSTYesRPJ,NVBUSGS-1090022.54 Poor NONE
2282016-10-25 11:45:25PSTYesRPJ,NVBUSGS-1130022.48 Poor NONE
2272016-10-25 11:37:42PSTYesRPJ,NVBUSGS-1070022.41 Poor NONE
2262016-10-25 11:29:39PSTYesRPJ,NVBUSGS-1100022.34 Poor NONE
2252016-10-25 11:22:46PSTYesRPJ,NVBUSGS-1110022.27 Poor NONE
2242016-10-25 11:07:59PSTYesRPJ,NVBUSGS-1120022.14 Poor NONE
2232016-10-25 11:00:41PSTYesRPJ,NVBUSGS-1110022.07 Poor NONE
2222016-10-25 10:52:38PSTYesRPJ,NVBUSGS-1110022.00 Poor NONE
2212016-10-25 10:45:47PSTYesRPJ,NVBUSGS-1110021.92 Poor NONE
2202016-10-25 10:38:14PSTYesRPJ,NVBUSGS-1100021.85 Poor NONE
2192016-10-25 10:28:59PSTYesRPJ,NVBUSGS-1040021.77 Poor NONE
2182016-10-25 10:20:33PSTYesRPJ,NVBUSGS-1120021.61 Poor NONE
2172016-10-25 10:10:07PSTYesRPJ,NVBUSGS-1140021.61 Poor NONE
2162016-10-25 10:00:28PSTYesRPJ,NVBUSGS-1130021.44 Poor NONE
2152016-10-25 09:51:41PSTYesRPJ,NVBUSGS-1090021.35 Poor NONE
2142016-10-25 09:41:29PSTYesRPJ,NVBUSGS-1060021.25 Poor NONE
2132016-10-25 09:32:38PSTYesRPJ,NVBUSGS-1030021.04 Poor NONE
2122016-10-25 09:25:46PSTYesRPJ,NVBUSGS-1010021.04 Poor NONE
2112016-10-25 09:19:02PSTYesRPJ,NVBUSGS-920020.84 Poor NONE
2102016-08-01 08:46:02PSTYesRJ, WFUSGS896021.30 Poor NONE
2092016-08-01 08:40:35PSTYesRJ, WFUSGS895021.30 Poor NONE
2082016-08-01 08:34:56PSTYesRJ, WFUSGS906021.46 Poor NONE
2072016-08-01 08:28:52PSTYesRJ, WFUSGS908021.46 Poor NONE
2062016-08-01 08:21:40PSTYesRJ, WFUSGS933021.54 Poor NONE
2052016-08-01 08:12:30PSTYesRJ, WFUSGS927021.62 Poor NONE
2042016-03-10 15:48:18PSTYesTM DAUSGS-1700023.31 Fair NONE
2032016-03-10 15:41:05PSTYesTM DAUSGS-1850023.24 Fair NONE
2022016-03-10 15:35:30PSTYesTM DAUSGS-1720023.16 Fair NONE
2012016-03-10 15:30:42PSTYesTM DAUSGS-1820023.09 Fair NONE
2002016-03-10 15:26:20PSTYesTM DAUSGS-1760023.03 Fair NONE
1992016-03-10 15:21:50PSTYesTM DAUSGS-1850022.98 Fair NONE
1982016-02-26 15:26:22PSTYesTM, CHUSGS-1350021.16 Poor NONE
1972016-02-26 15:22:28PSTYesTM, CHUSGS-1330021.12 Poor NONE
1962016-02-26 15:01:25PSTYesTM, CHUSGS-1310020.86 Poor NONE
1952016-02-26 14:58:28PSTYesTM, CHUSGS-1330020.83 Poor NONE
1942016-02-26 14:55:33PSTYesTM, CHUSGS-1310020.78 Poor NONE
1932016-02-26 14:52:32PSTYesTM, CHUSGS-1250020.75 Poor NONE
1922016-02-26 14:49:51PSTYesTM, CHUSGS-1190020.71 Poor NONE
1912016-02-26 14:46:49PSTYesTM, CHUSGS-1200020.69 Poor NONE
1902016-02-26 14:44:17PSTYesTM, CHUSGS-1120020.67 Poor NONE
1892016-02-26 14:41:21PSTYesTM, CHUSGS-1140020.63 Poor NONE
1882016-02-26 14:38:34PSTYesTM, CHUSGS-1080020.60 Poor NONE
1872016-02-26 14:35:12PSTYesTM, CHUSGS-1010020.56 Poor NONE
1862016-02-26 14:32:04PSTYesTM, CHUSGS-953020.53 Poor NONE
1852016-02-26 14:29PSTYesTM, CHUSGS-899020.51 Poor NONE
1842016-02-26 14:26:16PSTYesTM, CHUSGS-864020.49 Poor NONE
1832016-02-26 14:22:53PSTYesTM, CHUSGS-760020.45 Poor NONE
1822016-02-26 14:19:04PSTYesTM, CHUSGS-676020.43 Poor NONE
1812016-02-26 14:14:52PSTYesTM, CHUSGS-521020.40 Poor NONE
1802016-02-26 14:10:30PSTYesTM, CHUSGS-466020.37 Poor NONE
1792016-02-26 14:05:55PSTYesTM, CHUSGS-357020.35 Poor NONE
1782016-02-26 13:58:43PSTYesTM, CHUSGS-83920.32 Poor NONE
1772016-02-26 13:52:53PSTYesTM, CHUSGS-16720.30 Poor NONE
1762016-02-26 13:43:18PSTYesTM, CHUSGS149020.28 Poor NONE
1752016-02-26 13:37:36PSTYesTM, CHUSGS251020.28 Poor NONE
1742016-02-26 13:32:25PSTYesTM, CHUSGS332020.28 Poor NONE
1732016-02-26 13:27:01PSTYesTM, CHUSGS359020.28 Poor NONE
1722015-05-18 13:46PSTYesAD/NDUSGS-1250020.81 UnspecifiedUnspecifedNONE
1712015-05-18 13:41PSTYesAD/NDUSGS-1260020.73 UnspecifiedUnspecifedNONE
1702015-05-18 13:36PSTYesAD/NDUSGS-1220020.65 UnspecifiedUnspecifedNONE
1692015-05-18 13:33PSTYesAD/NDUSGS-1220020.58 UnspecifiedUnspecifedNONE
1682015-05-18 13:23PSTYesAD/NDUSGS-1160020.47 UnspecifiedUnspecifedNONE
1672015-05-18 13:20PSTYesAD/NDUSGS-1110020.39 UnspecifiedUnspecifedNONE
1662015-05-18 13:14PSTYesAD/NDUSGS-1090020.32 UnspecifiedUnspecifedNONE
1652015-05-18 13:11PSTYesAD/NDUSGS-1050020.27 UnspecifiedUnspecifedNONE
1642015-05-18 13:05PSTYesAD/NDUSGS-1040020.21 UnspecifiedUnspecifedNONE
1632015-05-18 13:02PSTYesAD/NDUSGS-962020.14 UnspecifiedUnspecifedNONE
1622015-05-18 12:53PSTYesAD/NDUSGS-940020.07 UnspecifiedUnspecifedNONE
1612015-05-18 12:49PSTYesAD/NDUSGS-870020.00 UnspecifiedUnspecifedNONE
1602015-05-18 12:43PSTYesAD/NDUSGS-741019.94 UnspecifiedUnspecifedNONE
1592015-05-18 12:39PSTYesAD/NDUSGS-632019.88 UnspecifiedUnspecifedNONE
1582015-05-18 12:34PSTYesAD/NDUSGS-578019.83 UnspecifiedUnspecifedNONE
1572015-05-18 12:30PSTYesAD/NDUSGS-430019.79 UnspecifiedUnspecifedNONE
1562015-05-18 12:25PSTYesAD/NDUSGS-332019.75 UnspecifiedUnspecifedNONE
1552015-05-18 12:21PSTYesAD/NDUSGS-207019.71 UnspecifiedUnspecifedNONE
1542015-05-18 12:15PSTYesAD/NDUSGS-67319.68 UnspecifiedUnspecifedNONE
1532015-05-18 12:10PSTYesAD/NDUSGS37519.67 UnspecifiedUnspecifedNONE
1522015-05-18 12:04PSTYesAD/NDUSGS162019.66 UnspecifiedUnspecifedNONE
1512015-05-18 12:00PSTYesAD/NDUSGS201019.64 UnspecifiedUnspecifedNONE
1502015-02-05 17:50PSTYesMVC/KBMUSGS-159 Unspecified NONE
1492015-02-05 17:42PSTYesMVC/KBMUSGS-2450 Unspecified NONE
1482015-02-05 17:34PSTYesMVC/KBMUSGS-4380 Unspecified NONE
1472015-02-05 17:17PSTYesMVC/KBMUSGS-6060 Unspecified NONE
1462015-02-05 17:01PSTYesMVC/KBMUSGS-8620 Unspecified NONE
1442015-02-05 16:46PSTYesMVC/KBMUSGS-13700 Unspecified NONE
1452015-02-05 16:25PSTYesMVC/KBMUSGS-11500 Unspecified NONE
1432015-02-05 16:08PSTYesMVC/KBMUSGS-13500 Unspecified NONE
1422015-02-05 15:59PSTYesMVC/KBMUSGS-13500 Unspecified NONE
1412015-02-05 15:52PSTYesMVC/KBMUSGS-14600 Unspecified NONE
1402015-02-05 15:44PSTYesMVC/KBMUSGS-15200 Unspecified NONE
1392015-02-05 15:15PSTYesMVC/KBMUSGS-15500 Unspecified NONE
1382015-02-05 15:04PSTYesMVC/KBMUSGS-16600 Unspecified NONE
1372015-02-05 14:50PSTYesMVC/KBMUSGS-15800 Unspecified NONE
1362015-02-05 13:33PSTYesMVC/KBMUSGS-15400 Unspecified NONE
1352015-02-05 13:08PSTYesMVC/KBMUSGS-17600 Unspecified NONE
1342015-02-05 12:58PSTYesMVC/KBMUSGS-14500 Unspecified NONE
1332015-02-05 12:50PSTYesMVC/KBMUSGS-12800 Unspecified NONE
1322015-02-05 12:39PSTYesMVC/KBMUSGS-11400 Unspecified NONE
1312015-02-05 12:27PSTYesMVC/KBMUSGS-8060 Unspecified NONE
1302015-02-05 12:15PSTYesMVC/KBMUSGS-4540 Unspecified NONE
1292015-02-05 11:56PSTYesMVC/KBMUSGS-419 Unspecified NONE
1282015-02-05 11:37PSTYesMVC/KBMUSGS3800 Unspecified NONE
1272015-02-05 10:39PSTYesMVC/KBMUSGS10500 Unspecified NONE
1262015-02-05 10:29PSTYesMVC/KBMUSGS10300 Unspecified NONE
1252015-02-05 10:12PSTYesMVC/KBMUSGS11700 Unspecified NONE
1242015-02-05 10:02PSTYesMVC/KBMUSGS12100 Unspecified NONE
1232014-08-26 13:25PSTYesYESUSGS-12000 Unspecified NONE
1222014-08-26 13:16PSTYesYESUSGS-11500 Unspecified NONE
1212014-08-26 13:07PSTYesYESUSGS-10900 Unspecified NONE
1202014-08-26 13:00PSTYesYESUSGS-10400 Unspecified NONE
1192014-08-26 12:52PSTYesYESUSGS-9400 Unspecified NONE
1182014-08-26 12:46PSTYesYESUSGS-7860 Unspecified NONE
1172014-08-26 12:41PSTYesYESUSGS-7210 Unspecified NONE
1162014-08-26 12:36PSTYesYESUSGS-5760 Unspecified NONE
1152014-08-26 12:29PSTYesYESUSGS-4370 Unspecified NONE
1142014-08-26 12:23PSTYesYESUSGS-2830 Unspecified NONE
1132014-08-26 12:10PSTYesYESUSGS710 Unspecified NONE
1122014-08-26 11:56PSTYesYESUSGS3200 Unspecified NONE
1112011-12-08 17:56PSTYesYESUSGS11200 Unspecified NONE
1102011-12-08 17:48PSTYesYESUSGS11600 Unspecified NONE
1092011-12-08 17:39PSTYesYESUSGS11200 Unspecified NONE
1082011-12-08 17:28PSTYesYESUSGS12700 Unspecified NONE
1072011-12-08 17:14PSTYesYESUSGS14300 Unspecified NONE
1062011-12-08 17:03PSTYesYESUSGS13600 Unspecified NONE
1052011-12-08 16:57PSTYesYESUSGS13200 Unspecified NONE
1042011-12-08 16:50PSTYesYESUSGS12900 Unspecified NONE
1032011-12-08 16:11PSTYesYESUSGS11700 Unspecified NONE
1022011-12-08 16:03PSTYesYESUSGS10700 Unspecified NONE
1012011-12-08 15:54PSTYesYESUSGS10300 Unspecified NONE
1002011-12-08 15:45PSTYesYESUSGS9140 Unspecified NONE
992011-12-08 15:38PSTYesYESUSGS8790 Unspecified NONE
982011-12-08 15:30PSTYesYESUSGS7150 Unspecified NONE
972011-12-08 15:23PSTYesYESUSGS5870 Unspecified NONE
962011-12-08 15:13PSTYesYESUSGS3590 Unspecified NONE
952011-12-08 15:05PSTYesYESUSGS921 Unspecified NONE
942011-12-08 14:56PSTYesYESUSGS-1460 Unspecified NONE
932011-12-08 14:46PSTYesYESUSGS-3590 Unspecified NONE
922011-12-08 14:36PSTYesYESUSGS-5550 Unspecified NONE
912011-12-08 14:26PSTYesYESUSGS-6820 Unspecified NONE
902011-12-08 14:15PSTYesYESUSGS-8340 Unspecified NONE
892011-12-08 14:06PSTYesYESUSGS-9170 Unspecified NONE
882011-12-08 13:57PSTYesYESUSGS-10000 Unspecified NONE
872011-12-08 13:47PSTYesYESUSGS-10700 Unspecified NONE
862011-12-08 13:35PSTYesYESUSGS-11500 Unspecified NONE
852011-12-08 13:09PSTYesYESUSGS-11600 Unspecified NONE
842011-12-08 13:01PSTYesYESUSGS-12400 Unspecified NONE
832011-12-08 12:47PSTYesYESUSGS-12400 Unspecified NONE
822011-12-08 12:34PSTYesYESUSGS-12500 Unspecified NONE
812011-12-08 12:04PSTYesYESUSGS-13400 Unspecified NONE
802011-12-08 11:57PSTYesYESUSGS-13700 Unspecified NONE
792011-12-08 11:49PSTYesYESUSGS-13100 Unspecified NONE
782011-12-08 11:42PSTYesYESUSGS-14200 Unspecified NONE
772011-12-08 11:33PSTYesYESUSGS-13100 Unspecified NONE
762011-12-08 11:26PSTYesYESUSGS-12700 Unspecified NONE
752011-12-08 10:57PSTYesYESUSGS-12000 Unspecified NONE
742011-12-08 10:51PSTYesYESUSGS-12100 Unspecified NONE
732011-12-08 10:40PSTYesYESUSGS-11000 Unspecified NONE
722011-12-08 10:33PSTYesYESUSGS-11700 Unspecified NONE
712011-12-08 10:25PSTYesYESUSGS-11400 Unspecified NONE
702011-12-08 10:17PSTYesYESUSGS-10500 Unspecified NONE
692011-12-08 10:10PSTYesYESUSGS-9880 Unspecified NONE
682011-12-08 10:03PSTYesYESUSGS-10500 Unspecified NONE
672011-12-08 09:53PSTYesYESUSGS-8850 Unspecified NONE
662011-12-08 09:46PSTYesYESUSGS-8590 Unspecified NONE
652011-12-08 09:36PSTYesYESUSGS-7130 Unspecified NONE
642011-12-08 09:30PSTYesYESUSGS-6040 Unspecified NONE
632011-12-08 09:20PSTYesYESUSGS-4130 Unspecified NONE
622011-12-08 09:10PSTYesYESUSGS-2480 Unspecified NONE
612011-12-08 08:59PSTYesYESUSGS-439 Unspecified NONE
602011-12-08 08:50PSTYesYESUSGS1100 Unspecified NONE
592011-12-08 08:42PSTYesYESUSGS2310 Unspecified NONE
582011-12-08 08:36PSTYesYESUSGS3080 Unspecified NONE
572011-12-08 08:27PSTYesYESUSGS4260 Unspecified NONE
562011-12-08 08:18PSTYesYESUSGS5150 Unspecified NONE
552011-12-08 08:11PSTYesYESUSGS5810 Unspecified NONE
542011-12-08 07:58PSTYesYESUSGS5780 Unspecified NONE
532011-12-08 07:23PSTYesYESUSGS8510 Unspecified NONE
522011-12-08 07:16PSTYesYESUSGS8940 Unspecified NONE
512011-12-08 07:06PSTYesYESUSGS9420 Unspecified NONE
502011-12-08 06:58PSTYesYESUSGS9090 Unspecified NONE
492011-12-08 06:52PSTYesYESUSGS8220 Unspecified NONE
482011-01-20 17:09PSTYesYESUSGS4410 Unspecified NONE
472011-01-20 17:03PSTYesYESUSGS2900 Unspecified NONE
462011-01-20 16:56PSTYesYESUSGS-861 Unspecified NONE
452011-01-20 16:23PSTYesYESUSGS-8210 Unspecified NONE
442011-01-20 16:15PSTYesYESUSGS-7650 Unspecified NONE
432011-01-20 16:10PSTYesYESUSGS-8950 Unspecified NONE
422011-01-20 15:47PSTYesYESUSGS-13000 Unspecified NONE
412011-01-20 15:40PSTYesYESUSGS-10000 Unspecified NONE
402011-01-20 15:33PSTYesYESUSGS-11900 Unspecified NONE
392011-01-20 14:51PSTYesYESUSGS-16500 Unspecified NONE
382011-01-20 14:43PSTYesYESUSGS-13300 Unspecified NONE
372011-01-20 14:38PSTYesYESUSGS-14500 Unspecified NONE
362011-01-20 14:13PSTYesYESUSGS-16000 Unspecified NONE
352011-01-20 14:06PSTYesYESUSGS-15500 Unspecified NONE
342011-01-20 13:59PSTYesYESUSGS-16200 Unspecified NONE
332011-01-20 13:40PSTYesYESUSGS-13300 Unspecified NONE
322011-01-20 13:33PSTYesYESUSGS-14500 Unspecified NONE
312011-01-20 13:28PSTYesYESUSGS-15900 Unspecified NONE
302011-01-20 13:07PSTYesYESUSGS-14900 Unspecified NONE
292011-01-20 12:59PSTYesYESUSGS-12200 Unspecified NONE
282011-01-20 12:54PSTYesYESUSGS-14800 Unspecified NONE
272011-01-20 12:25PSTYesYESUSGS-11800 Unspecified NONE
262011-01-20 12:17PSTYesYESUSGS-10800 Unspecified NONE
252011-01-20 12:11PSTYesYESUSGS-12000 Unspecified NONE
242011-01-20 12:03PSTYesYESUSGS-10900 Unspecified NONE
232011-01-20 11:55PSTYesYESUSGS-10700 Unspecified NONE
222011-01-20 11:38PSTYesYESUSGS-7340 Unspecified NONE
212011-01-20 11:29PSTYesYESUSGS-4980 Unspecified NONE
202011-01-20 11:22PSTYesYESUSGS-1790 Unspecified NONE
192011-01-20 11:10PSTYesYESUSGS243 Unspecified NONE
182011-01-20 11:03PSTYesYESUSGS1260 Unspecified NONE
172011-01-20 10:53PSTYesYESUSGS3350 Unspecified NONE
162011-01-20 10:29PSTYesYESUSGS5300 Unspecified NONE
152011-01-20 10:23PSTYesYESUSGS5770 Unspecified NONE
142011-01-20 10:09PSTYesYESUSGS7030 Unspecified NONE
132011-01-20 09:57PSTYesYESUSGS7150 Unspecified NONE
122011-01-20 09:51PSTYesYESUSGS8460 Unspecified NONE
112011-01-20 09:25PSTYesYESUSGS9030 Unspecified NONE
102011-01-20 09:19PSTYesYESUSGS9410 Unspecified NONE
92011-01-20 09:12PSTYesYESUSGS9020 Unspecified NONE
82011-01-20 09:01PSTYesYESUSGS10000 Unspecified NONE
72011-01-20 08:56PSTYesYESUSGS10800 Unspecified NONE
62011-01-20 08:26PSTYesYESUSGS10400 Unspecified NONE
52011-01-20 08:12PSTYesYESUSGS10500 Unspecified NONE
42011-01-20 08:05PSTYesYESUSGS10900 Unspecified NONE
32011-01-20 07:57PSTYesYESUSGS10100 Unspecified NONE
22011-01-20 07:45PSTYesYESUSGS11000 Unspecified NONE
12011-01-20 07:38PSTYesYESUSGS11300 Unspecified NONE